| time (UTC) | temp C | wind direction | speed KPH | gust KPH | rain 1hr cm | rain 24hr cm | rain mn cm | humidity % | barometer mb |
| 20260831180829 | 31 | 147 | 1.6 | 4.8 | 0.00 | 0.00 | 0.00 | 70 | |
| 20260831180259 | 31 | 137 | 1.6 | 3.2 | 0.00 | 0.00 | 0.00 | 73 | |
| 20260831175729 | 30 | 143 | 3.2 | 6.4 | 0.00 | 0.00 | 0.00 | 74 | |
| 20260831175159 | 30 | 148 | 3.2 | 6.4 | 0.00 | 0.00 | 0.00 | 75 | |
| 20260831174629 | 30 | 143 | 3.2 | 6.4 | 0.00 | 0.00 | 0.00 | 76 | |
| 20260831174059 | 30 | 146 | 1.6 | 4.8 | 0.00 | 0.00 | 0.00 | 77 | |
| 20260831173529 | 30 | 157 | 1.6 | 4.8 | 0.00 | 0.00 | 0.00 | 78 | |
| 20260831172959 | 30 | 160 | 1.6 | 6.4 | 0.00 | 0.00 | 0.00 | 80 | |
| 20260831172459 | 30 | 157 | 3.2 | 6.4 | 0.00 | 0.00 | 0.00 | 78 | |
| 20260831171959 | 30 | 141 | 1.6 | 4.8 | 0.00 | 0.00 | 0.00 | 76 | |
| 20260831171429 | 30 | 138 | 1.6 | 4.8 | 0.00 | 0.00 | 0.00 | 75 | |
| 20260831170859 | 30 | 142 | 1.6 | 4.8 | 0.00 | 0.00 | 0.00 | 76 | |
| 20260831170359 | 30 | 152 | 1.6 | 3.2 | 0.00 | 0.00 | 0.00 | 75 | |
| 20260831165829 | 30 | 160 | 1.6 | 3.2 | 0.00 | 0.00 | 0.00 | 73 | |
| 20260831165259 | 30 | 144 | 1.6 | 3.2 | 0.00 | 0.00 | 0.00 | 73 | |
| 20260831164759 | 30 | 152 | 1.6 | 4.8 | 0.00 | 0.00 | 0.00 | 72 | |
| 20260831164229 | 30 | 162 | 1.6 | 4.8 | 0.00 | 0.00 | 0.00 | 73 | |
| 20260831163729 | 30 | 161 | 1.6 | 3.2 | 0.00 | 0.00 | 0.00 | 73 | |
| 20260831163159 | 30 | 147 | 1.6 | 3.2 | 0.00 | 0.00 | 0.00 | 73 | |
| 20260831162659 | 30 | 139 | 1.6 | 3.2 | 0.00 | 0.00 | 0.00 | 72 | |
| 20260831162129 | 30 | 148 | 0.0 | 3.2 | 0.00 | 0.00 | 0.00 | 72 |